sat.trackr.live / text

‹ back to catalog

STARLINK-32290

NORAD 60359 · 2024-138E

PAYLOAD ACTIVE UNKNOWN

§ Identity

Operator
Country
US
Launch date
2024-08-04
Launch site
AFWTR
Launch vehicle
Mass (kg)
RCS (m²)

Purposes: comms

External: N2YO · Heavens-Above · Gunter

§ Orbital elements

Epoch: 2026-05-25T04:15:56.629728Z

Period
94.11 min
Inclination
53.1604°
Eccentricity
0.0001016
Mean motion
15.30200966 rev/d
Perigee alt
474.5 km
Apogee alt
475.9 km
Semi-major
6,853.3 km
B*
5.9214e-5
RAAN
314.6568°
Arg perigee
86.0594°
Mean anomaly
274.0523°
Rev number
8,336

§ Raw data

STARLINK-322901 60359U 24138E   26145.17773877  .00001395  00000+0  59214-4 0  99982 60359  53.1604 314.6568 0001016  86.0594 274.0523 15.30200966 83362

JSON: /api/v1/satellites/60359 · /tle

For live sub-satellite position, see the globe view (requires WebGL).

§ Visibility from observer

Set your observer location to see the next 7 days of passes ≥ 10°. The values pass through the URL so the page stays shareable.

No JS? Fill the form by hand. The geolocation button needs JavaScript.